Погода в Игоревской

Россия / Смоленская область     55°27′29″N   33°17′27″E
В апреле 2022 года жителям России запретили посещать сайт meteo.paraplan.net по решению Генеральной прокуратуры. Аудитория сайта уменьшилась в 10 раз. Владельцы сайта не видят смысла в поддержке погодного сервера в таких условиях. Сайт будет закрыт в октябре.
темп.,
°C
ветер,
м/с
пор.,
м/с
влажн.,
%
обл.,
%
осадки,
мм/ч
давл.,
гПа
погр.,
м
3 октября, пн
пн300:00+7св71695100 5.3 996696
03:00+7св71696100 10.4 992663
06:00+9св61597100 7.3 988611
09:00+10юв4994100 10.5 988515
12:00+10юв3892100 0.9 989694
15:00+7юв5987100 1.1 9901186
18:00+5вюв51088100 0.3 9911196
21:00+3юв51297100 1.8 992773
4 октября, вт
вт400:00+3ююв61397100 2.5 994871
03:00+3ююв61297100 4.4 9961010
06:00+4ююв51197100 2.1 9981049
09:00+4ююв51097100 2.9 10001047
12:00+4ююв5997100 0.8 1002951
15:00+4ююв4897100 1.2 1004916
18:00+5ю3697100 1.1 1005987
21:00+4ююз2498100 1.9 1006710
5 октября, ср
ср500:00+4зюз2496100 0.6 1007622
03:00+4з2496100 1.1 1008780
06:00+2зсз269791 0.1 1011229
09:00+4зсз3796100 0.2 1013458
12:00+6зсз3684100 0.1 1014721
15:00+8з4779100 0.2 10151140
18:00+7з3990100 0.1 1016664
21:00+7зюз3897100 0.4 1017413
6 октября, чт
чт600:00+7юз31098100 0.8 1016449
03:00+8юз41098100 0.9 1015450
06:00+9зюз41097100 0.2 1015452
09:00+9зюз31097100 0.6 1015410
12:00+12зюз4108247 0.0 1014536
15:00+15зюз510765 0.0 1013842
18:00+12зюз5128270 0.0 1014679
21:00+12зсз513862 0.1 1016829
7 октября, пт
пт700:00+10з413944 0.0 1018584
03:00+8з412900 0.0 1019576
06:00+7з4119698 0.0 1020543
09:00+9з51079100 0.0 1021967
12:00+10з41077100 0.0 10221210
15:00+12з587281 0.0 10221142
18:00+11з497082 0.0 1022608
21:00+8зюз311884 0.0 1023318